Bowling Green, KY

9:35 PM CDT on October 20, 2017 (GMT -0500)
Bowling Green-Warren County Regional

Weather History for KBWG - November, 2013

Change the Weather History Date:

Saturday, November 30, 2013

  Actual Average Record
Temperature  
Mean Temperature 40 °F 43 °F  
Max Temperature 57 °F 53 °F 76 °F (2006)
Min Temperature 23 °F 33 °F 4 °F (1929)
Degree Days  
Heating Degree Days 25 22  
Month to date heating degree days 630 500  
Since 1 July heating degree days 880 763  
Cooling Degree Days 0 0  
Month to date cooling degree days 0 3  
Year to date cooling degree days 1499 1491  
Moisture  
Dew Point 24 °F    
Average Humidity 61    
Maximum Humidity 96    
Minimum Humidity 26    
Precipitation  
Precipitation 0.00 in 0.16 in 1.31 in (1975)
Month to date precipitation 2.82 4.22  
Year to date precipitation 54.65 45.09  
Snow  
Snow 0.00 in 0.00 in 0.60 in (1964)
Month to date snowfall 1.1 0.0  
Since 1 July snowfall 1.1 T  
Since 1 September snowfall 1.1 T  
Snow Depth 0.00 in    
Sea Level Pressure  
Sea Level Pressure 30.37 in    
Wind  
Wind Speed 5 mph (SSW)    
Max Wind Speed 20 mph    
Max Gust Speed 25 mph    
Visibility 9 miles    
Events      
T = Trace of Precipitation, MM = Missing Value Source: NWS Daily Summary

Daily Weather History Graph

Daily Weather History Graph

Search for Another Location

Airport or City:

Trip Planner

Search our weather history database for the weather conditions in past years. The results will help you decide how hot, cold, wet, or windy it might be!

Date:

Astronomy

Nov. 30, 2013 Rise Set
Actual Time 6:39 AM CST 4:29 PM CST
Civil Twilight 6:10 AM CST 4:57 PM CST
Nautical Twilight 5:38 AM CST 5:29 PM CST
Astronomical Twilight 5:07 AM CST 6:01 PM CST
Moon 3:53 AM CST (11/30) 2:50 PM CST (11/30)
Length of Visible Light 10h 46m
Length of Day
9h 49m
Waning Crescent, 7% of the Moon is Illuminated
Nov 30
Waning Crescent
Dec 2
New
Dec 9
First Quarter
Dec 17
Full
Dec 25
Last Quarter

Hourly Weather History & Observations

Time (CST) Temp. Windchill Dew Point Humidity Pressure Visibility Wind Dir Wind Speed Gust Speed Precip Events Conditions
12:53 AM 28.0 °F - 24.1 °F 85% 30.48 in 6.0 mi Calm Calm - N/A   Clear
1:53 AM 24.1 °F - 19.9 °F 84% 30.46 in 9.0 mi Calm Calm - N/A   Clear
2:53 AM 25.0 °F - 21.0 °F 85% 30.46 in 7.0 mi Calm Calm - N/A   Clear
3:53 AM 24.1 °F - 21.0 °F 88% 30.45 in 6.0 mi Calm Calm - N/A   Clear
4:53 AM 23.0 °F - 21.0 °F 92% 30.46 in 6.0 mi Calm Calm - N/A   Clear
5:53 AM 26.1 °F - 23.0 °F 88% 30.47 in 8.0 mi Calm Calm - N/A   Clear
6:53 AM 23.0 °F - 19.9 °F 88% 30.48 in 6.0 mi Calm Calm - N/A   Clear
7:53 AM 27.0 °F - 24.1 °F 89% 30.48 in 7.0 mi Calm Calm - N/A   Clear
8:53 AM 37.0 °F - 28.9 °F 73% 30.47 in 10.0 mi Calm Calm - N/A   Clear
9:53 AM 48.9 °F - 30.0 °F 48% 30.45 in 10.0 mi SSW 10.4 mph - N/A   Clear
10:53 AM 53.1 °F - 27.0 °F 37% 30.43 in 10.0 mi SSW 13.8 mph - N/A   Clear
11:53 AM 54.0 °F - 26.1 °F 34% 30.38 in 10.0 mi SW 15.0 mph - N/A   Clear
12:53 PM 55.0 °F - 25.0 °F 31% 30.35 in 10.0 mi SSW 15.0 mph 19.6 mph N/A   Clear
1:53 PM 55.9 °F - 23.0 °F 28% 30.32 in 10.0 mi SSW 12.7 mph - N/A   Clear
2:53 PM 55.9 °F - 21.9 °F 27% 30.29 in 10.0 mi SSW 12.7 mph - N/A   Clear
3:53 PM 54.0 °F - 23.0 °F 30% 30.28 in 10.0 mi SSW 8.1 mph - N/A   Clear
4:53 PM 50.0 °F - 24.1 °F 36% 30.27 in 10.0 mi SSE 4.6 mph - N/A   Clear
5:53 PM 48.0 °F - 23.0 °F 37% 30.26 in 10.0 mi SSE 3.5 mph - N/A   Clear
6:53 PM 46.0 °F 43.1 °F 24.1 °F 42% 30.26 in 10.0 mi SSE 5.8 mph - N/A   Clear
7:53 PM 45.0 °F 41.8 °F 26.1 °F 48% 30.26 in 10.0 mi South 5.8 mph - N/A   Clear
8:53 PM 43.0 °F 41.3 °F 26.1 °F 51% 30.25 in 10.0 mi South 3.5 mph - N/A   Clear
9:53 PM 36.0 °F - 27.0 °F 70% 30.26 in 10.0 mi Calm Calm - N/A   Clear
10:53 PM 41.0 °F 39.0 °F 26.1 °F 55% 30.25 in 10.0 mi South 3.5 mph - N/A   Clear
11:53 PM 39.0 °F 34.0 °F 27.0 °F 62% 30.25 in 10.0 mi SSW 6.9 mph - N/A   Clear